"Period start","avg(HW err(1)/warn(2) (#))","avg(Visibility (m))","avg(Weather code (#))","avg(Precip intensity (mm/h))","min(HW err(1)/warn(2) (#))","max(HW err(1)/warn(2) (#))","std(HW err(1)/warn(2) (#))","med(HW err(1)/warn(2) (#))","min(Visibility (m))","max(Visibility (m))","std(Visibility (m))","med(Visibility (m))","min(Weather code (#))","max(Weather code (#))","std(Weather code (#))","med(Weather code (#))","min(Precip intensity (mm/h))","max(Precip intensity (mm/h))","std(Precip intensity (mm/h))","med(Precip intensity (mm/h))"
2014-06-04 00:00:00,2,1032,71,1.52,2,2,0,2,790,1359,168,944,71,71,0,71,0.10,3.50,1.03,1.40
2014-06-04 00:10:00,2,1395,74,0.11,2,2,0,2,1149,1744,191,1397,61,77,5,77,0.00,0.30,0.11,0.10
2014-06-04 00:20:00,2,686,54,0.10,2,2,0,2,460,1401,295,548,41,71,10,51,0.00,0.30,0.10,0.08
2014-06-04 00:30:00,2,1793,74,0.09,2,2,0,2,1229,2451,389,1762,71,77,3,74,0.05,0.20,0.04,0.10
2014-06-04 00:40:00,2,1137,44,0.03,2,2,0,2,539,2070,568,774,20,77,18,41,0.00,0.10,0.03,0.03
2014-06-04 00:50:00,2,1097,34,0.00,2,2,0,2,693,2010,448,817,33,34,0,34,0.00,0.00,0.00,0.00
2014-06-04 01:00:00,2,1499,24,0.00,2,2,0,2,1050,2049,333,1452,20,34,5,20,0.00,0.00,0.00,0.00
2014-06-04 01:10:00,2,2665,20,0.00,2,2,0,2,982,3644,806,2898,20,20,0,20,0.00,0.00,0.00,0.00
2014-06-04 01:20:00,2,2099,20,0.00,2,2,0,2,899,4571,972,1891,20,20,0,20,0.00,0.00,0.00,0.00
2014-06-04 01:30:00,2,16639,20,0.00,2,2,0,2,2961,32408,10342,15111,20,20,0,20,0.00,0.00,0.00,0.00
2014-06-04 01:40:00,2,13394,20,0.00,2,2,0,2,1390,35832,9851,12198,20,20,0,20,0.00,0.00,0.00,0.00
2014-06-04 01:50:00,2,35501,20,0.00,2,2,0,2,14565,50000,13375,35768,20,20,0,20,0.00,0.00,0.00,0.00
2014-06-04 02:00:00,2,25444,8,0.00,2,2,0,2,11985,49108,10279,23576,0,20,10,0,0.00,0.00,0.00,0.00
2014-06-04 02:10:00,2,38276,0,0.00,2,2,0,2,26931,50000,7441,38218,0,0,0,0,0.00,0.00,0.00,0.00
2014-06-04 02:20:00,2,46628,0,0.00,2,2,0,2,39540,50000,3799,48443,0,0,0,0,0.00,0.00,0.00,0.00
2014-06-04 02:30:00,2,44327,0,0.00,2,2,0,2,19468,50000,9871,50000,0,0,0,0,0.00,0.00,0.00,0.00
2014-06-04 02:40:00,2,42640,0,0.00,2,2,0,2,33989,50000,5879,42742,0,0,0,0,0.00,0.00,0.00,0.00
2014-06-04 02:50:00,2,39726,0,0.00,2,2,0,2,22920,50000,10930,43812,0,0,0,0,0.00,0.00,0.00,0.00
2014-06-04 03:00:00,2,46609,0,0.00,2,2,0,2,32497,50000,5564,49748,0,0,0,0,0.00,0.00,0.00,0.00
2014-06-04 03:10:00,2,46478,0,0.00,2,2,0,2,35419,50000,5602,49699,0,0,0,0,0.00,0.00,0.00,0.00
2014-06-04 03:20:00,2,47731,0,0.00,2,2,0,2,38476,50000,3581,49503,0,0,0,0,0.00,0.00,0.00,0.00
2014-06-04 03:30:00,2,44165,0,0.00,2,2,0,2,35552,50000,5465,44435,0,0,0,0,0.00,0.00,0.00,0.00
2014-06-04 03:40:00,2,48261,0,0.00,2,2,0,2,41966,50000,2715,50000,0,0,0,0,0.00,0.00,0.00,0.00
2014-06-04 03:50:00,2,47141,0,0.00,2,2,0,2,37335,50000,4383,49638,0,0,0,0,0.00,0.00,0.00,0.00
2014-06-04 04:00:00,2,34817,0,0.00,2,2,0,2,8130,50000,14125,39794,0,0,0,0,0.00,0.00,0.00,0.00
2014-06-04 04:10:00,2,47957,0,0.00,2,2,0,2,43671,50000,2004,47808,0,0,0,0,0.00,0.00,0.00,0.00
2014-06-04 04:20:00,2,36950,0,0.00,2,2,0,2,10926,50000,11808,36638,0,0,0,0,0.00,0.00,0.00,0.00
2014-06-04 04:30:00,2,47559,0,0.00,2,2,0,2,39183,50000,3879,50000,0,0,0,0,0.00,0.00,0.00,0.00
2014-06-04 04:40:00,2,47657,0,0.00,2,2,0,2,41190,50000,2895,48842,0,0,0,0,0.00,0.00,0.00,0.00
2014-06-04 04:50:00,2,16860,0,0.00,2,2,0,2,5066,50000,13061,10612,0,0,0,0,0.00,0.00,0.00,0.00
2014-06-04 05:00:00,2,9457,1,0.00,2,2,0,2,3274,14602,3558,9148,0,10,3,0,0.00,0.00,0.00,0.00
2014-06-04 05:10:00,2,7108,10,0.00,2,2,0,2,777,25524,8434,2846,10,10,0,10,0.00,0.00,0.00,0.00
2014-06-04 05:20:00,2,1909,10,0.00,2,2,0,2,857,3937,1039,1384,10,10,0,10,0.00,0.00,0.00,0.00
2014-06-04 05:30:00,2,4919,10,0.00,2,2,0,2,610,17389,5579,2426,10,10,0,10,0.00,0.00,0.00,0.00
2014-06-04 05:40:00,2,10350,10,0.00,2,2,0,2,1936,22887,6492,9940,10,10,0,10,0.00,0.00,0.00,0.00
2014-06-04 05:50:00,2,1810,10,0.00,2,2,0,2,720,4415,1043,1507,10,10,0,10,0.00,0.00,0.00,0.00
2014-06-04 06:00:00,2,3692,10,0.00,2,2,0,2,865,7300,2027,2900,10,10,0,10,0.00,0.00,0.00,0.00
2014-06-04 06:10:00,2,3583,10,0.00,2,2,0,2,647,13942,4124,2062,10,10,0,10,0.00,0.00,0.00,0.00
2014-06-04 06:20:00,2,2687,20,0.00,2,2,0,2,668,8013,2371,1404,10,30,10,20,0.00,0.00,0.00,0.00
2014-06-04 06:30:00,2,6576,20,0.00,2,2,0,2,1250,30143,8157,3474,20,20,0,20,0.00,0.00,0.00,0.00
2014-06-04 06:40:00,2,2008,20,0.00,2,2,0,2,875,4413,895,1906,20,20,0,20,0.00,0.00,0.00,0.00
2014-06-04 06:50:00,2,4615,20,0.00,2,2,0,2,1280,12882,3761,2943,20,20,0,20,0.00,0.00,0.00,0.00
2014-06-04 07:00:00,2,4397,20,0.00,2,2,0,2,827,11907,4022,2210,20,20,0,20,0.00,0.00,0.00,0.00
2014-06-04 07:10:00,2,868,24,0.00,2,2,0,2,558,1560,302,740,20,34,6,20,0.00,0.00,0.00,0.00
2014-06-04 07:20:00,2,3751,30,0.00,2,2,0,2,986,13449,3827,1976,20,34,6,34,0.00,0.00,0.00,0.00
2014-06-04 07:30:00,2,781,24,0.00,2,2,0,2,500,1157,208,744,20,34,6,20,0.00,0.00,0.00,0.00
2014-06-04 07:40:00,2,712,34,0.00,2,2,0,2,562,956,120,668,34,34,0,34,0.00,0.00,0.00,0.00
2014-06-04 07:50:00,2,5827,33,0.00,2,2,0,2,552,21367,6013,3946,20,34,4,34,0.00,0.00,0.00,0.00
2014-06-04 08:00:00,2,6950,20,0.00,2,2,0,2,1424,23110,7546,2554,20,20,0,20,0.00,0.00,0.00,0.00
2014-06-04 08:10:00,2,3971,20,0.00,2,2,0,2,1169,8394,2030,3562,20,20,0,20,0.00,0.00,0.00,0.00
2014-06-04 08:20:00,2,3116,20,0.00,2,2,0,2,755,12684,3418,1984,20,20,0,20,0.00,0.00,0.00,0.00
2014-06-04 08:30:00,2,2128,20,0.00,2,2,0,2,966,4694,1098,1674,20,20,0,20,0.00,0.00,0.00,0.00
2014-06-04 08:40:00,2,1527,20,0.00,2,2,0,2,774,3990,933,1102,20,20,0,20,0.00,0.00,0.00,0.00
2014-06-04 08:50:00,2,3144,19,0.00,2,2,0,2,870,8335,2673,1850,10,20,3,20,0.00,0.00,0.00,0.00
2014-06-04 09:00:00,2,3287,10,0.00,2,2,0,2,1243,6873,1868,2741,10,10,0,10,0.00,0.00,0.00,0.00
2014-06-04 09:10:00,2,1773,10,0.00,2,2,0,2,824,3938,1010,1260,10,10,0,10,0.00,0.00,0.00,0.00
2014-06-04 09:20:00,2,2296,10,0.00,2,2,0,2,1062,4091,1034,2044,10,10,0,10,0.00,0.00,0.00,0.00
2014-06-04 09:30:00,2,4199,10,0.00,2,2,0,2,1228,15402,4135,2574,10,10,0,10,0.00,0.00,0.00,0.00
2014-06-04 09:40:00,2,6486,10,0.00,2,2,0,2,1805,15951,5034,4213,10,10,0,10,0.00,0.00,0.00,0.00
2014-06-04 09:50:00,2,5225,10,0.00,2,2,0,2,1135,19279,5261,3448,10,10,0,10,0.00,0.00,0.00,0.00
2014-06-04 10:00:00,2,1824,10,0.00,2,2,0,2,814,5481,1360,1191,10,10,0,10,0.00,0.00,0.00,0.00
2014-06-04 10:10:00,2,4162,10,0.00,2,2,0,2,825,9550,2886,3522,10,10,0,10,0.00,0.00,0.00,0.00
2014-06-04 10:20:00,2,1753,10,0.00,2,2,0,2,1187,2813,419,1696,10,10,0,10,0.00,0.00,0.00,0.00
2014-06-04 10:30:00,2,876,17,0.00,2,2,0,2,590,1140,155,896,10,34,10,10,0.00,0.00,0.00,0.00
2014-06-04 10:40:00,2,614,34,0.00,2,2,0,2,453,989,154,564,34,34,0,34,0.00,0.00,0.00,0.00
2014-06-04 10:50:00,2,494,34,0.00,2,2,0,2,332,790,136,466,34,34,0,34,0.00,0.00,0.00,0.00
2014-06-04 11:00:00,2,364,34,0.00,2,2,0,2,235,491,66,358,34,34,0,34,0.00,0.00,0.00,0.00
2014-06-04 11:10:00,2,417,34,0.00,2,2,0,2,250,572,97,434,33,34,0,34,0.00,0.00,0.00,0.00
2014-06-04 11:20:00,2,837,34,0.00,2,2,0,2,543,1238,217,842,34,34,0,34,0.00,0.00,0.00,0.00
2014-06-04 11:30:00,2,655,33,0.00,2,2,0,2,446,804,108,656,33,34,0,33,0.00,0.00,0.00,0.00
2014-06-04 11:40:00,2,518,30,0.00,2,2,0,2,362,760,115,494,30,32,1,30,0.00,0.00,0.00,0.00
2014-06-04 11:50:00,2,746,32,0.00,2,2,0,2,623,1025,124,699,32,32,0,32,0.00,0.00,0.00,0.00
2014-06-04 12:00:00,2,568,32,0.00,2,2,0,2,465,766,82,543,32,33,0,32,0.00,0.00,0.00,0.00
2014-06-04 12:10:00,2,614,33,0.00,2,2,0,2,506,732,77,588,30,33,1,33,0.00,0.00,0.00,0.00
2014-06-04 12:20:00,2,1714,33,0.00,2,2,0,2,873,3273,729,1446,30,33,1,33,0.00,0.00,0.00,0.00
2014-06-04 12:30:00,2,1579,20,0.00,2,2,0,2,744,2890,673,1472,20,20,0,20,0.00,0.00,0.00,0.00
2014-06-04 12:40:00,2,3396,20,0.00,2,2,0,2,1251,6996,1897,2552,20,20,0,20,0.00,0.00,0.00,0.00
2014-06-04 12:50:00,2,2988,20,0.00,2,2,0,2,1285,6623,1745,2258,20,20,0,20,0.00,0.00,0.00,0.00
2014-06-04 13:00:00,2,3336,20,0.00,2,2,0,2,1931,4984,985,3098,20,20,0,20,0.00,0.00,0.00,0.00
2014-06-04 13:10:00,2,11824,20,0.00,2,2,0,2,4691,23316,6106,9114,20,20,0,20,0.00,0.00,0.00,0.00
2014-06-04 13:20:00,2,13044,20,0.00,2,2,0,2,5222,28148,6787,11298,20,20,0,20,0.00,0.00,0.00,0.00
2014-06-04 13:30:00,2,10379,3,0.00,2,2,0,2,3839,18403,4637,10876,0,10,5,0,0.00,0.00,0.00,0.00
2014-06-04 13:40:00,2,16856,5,0.00,2,2,0,2,3808,43270,13079,8224,0,10,5,5,0.00,0.00,0.00,0.00
2014-06-04 13:50:00,2,5130,10,0.00,2,2,0,2,1791,13195,3169,4204,10,10,0,10,0.00,0.00,0.00,0.00
2014-06-04 14:00:00,2,5290,10,0.00,2,2,0,2,1684,9800,2640,4912,10,10,0,10,0.00,0.00,0.00,0.00
2014-06-04 14:10:00,2,2246,10,0.00,2,2,0,2,1055,7404,1797,1598,10,10,0,10,0.00,0.00,0.00,0.00
2014-06-04 14:20:00,2,1794,10,0.00,2,2,0,2,661,3503,787,1612,10,10,0,10,0.00,0.00,0.00,0.00
2014-06-04 14:30:00,2,1516,10,0.00,2,2,0,2,1075,3126,613,1210,10,10,0,10,0.00,0.00,0.00,0.00
2014-06-04 14:40:00,2,1288,10,0.00,2,2,0,2,967,1612,208,1298,10,10,0,10,0.00,0.00,0.00,0.00
2014-06-04 14:50:00,2,1413,10,0.00,2,2,0,2,1027,1797,243,1396,10,10,0,10,0.00,0.00,0.00,0.00
2014-06-04 15:00:00,2,1508,10,0.00,2,2,0,2,907,2910,548,1431,10,10,0,10,0.00,0.00,0.00,0.00
2014-06-04 15:10:00,2,1078,14,0.00,2,2,0,2,622,2497,502,918,10,30,8,10,0.00,0.00,0.00,0.00
2014-06-04 15:20:00,2,883,33,0.00,2,2,0,2,617,1360,213,823,30,34,2,34,0.00,0.00,0.00,0.00
2014-06-04 15:30:00,2,976,33,0.00,2,2,0,2,744,1414,188,972,30,34,2,34,0.00,0.00,0.00,0.00
2014-06-04 15:40:00,2,1077,32,0.00,2,2,0,2,690,1522,298,962,30,34,2,32,0.00,0.00,0.00,0.00
2014-06-04 15:50:00,2,1173,25,0.00,2,2,0,2,811,1918,303,1154,20,30,5,25,0.00,0.00,0.00,0.00
2014-06-04 16:00:00,2,902,28,0.00,2,2,0,2,749,1269,163,866,20,33,5,30,0.00,0.00,0.00,0.00
2014-06-04 16:10:00,2,834,33,0.00,2,2,0,2,648,1071,137,827,33,33,0,33,0.00,0.00,0.00,0.00
2014-06-04 16:20:00,2,974,33,0.00,2,2,0,2,597,1327,232,901,33,33,0,33,0.00,0.00,0.00,0.00
2014-06-04 16:30:00,2,763,33,0.00,2,2,0,2,524,1139,176,758,30,33,1,33,0.00,0.00,0.00,0.00
2014-06-04 16:40:00,2,511,34,0.00,2,2,0,2,395,669,94,489,30,34,1,34,0.00,0.00,0.00,0.00
2014-06-04 16:50:00,2,359,34,0.00,2,2,0,2,301,426,34,352,34,34,0,34,0.00,0.00,0.00,0.00
2014-06-04 17:00:00,2,296,34,0.00,2,2,0,2,272,362,28,286,34,34,0,34,0.00,0.00,0.00,0.00
2014-06-04 17:10:00,2,297,34,0.00,2,2,0,2,262,362,36,281,34,34,0,34,0.00,0.00,0.00,0.00
2014-06-04 17:20:00,2,301,61,0.12,2,2,0,2,275,347,23,298,34,77,20,77,0.00,0.20,0.07,0.12
2014-06-04 17:30:00,2,394,76,0.10,2,2,0,2,287,573,102,328,71,77,2,77,0.00,0.20,0.06,0.10
2014-06-04 17:40:00,2,372,77,0.10,2,2,0,2,337,430,23,366,77,77,0,77,0.05,0.15,0.03,0.10
2014-06-04 17:50:00,2,455,55,0.13,2,2,0,2,424,505,23,449,41,77,18,41,0.10,0.20,0.03,0.12
2014-06-04 18:00:00,2,653,44,0.07,2,2,0,2,484,836,95,631,32,77,17,36,0.00,0.15,0.07,0.05
2014-06-04 18:10:00,2,753,32,0.00,2,2,0,2,583,1006,142,724,32,32,0,32,0.00,0.00,0.00,0.00
2014-06-04 18:20:00,2,750,32,0.00,2,2,0,2,480,1034,222,706,32,32,0,32,0.00,0.00,0.00,0.00
2014-06-04 18:30:00,2,471,32,0.00,2,2,0,2,366,603,82,468,32,32,0,32,0.00,0.00,0.00,0.00
2014-06-04 18:40:00,2,1142,33,0.00,2,2,0,2,455,2186,712,722,30,33,1,33,0.00,0.00,0.00,0.00
2014-06-04 18:50:00,2,1279,28,0.00,2,2,0,2,683,2532,646,1029,20,33,6,33,0.00,0.00,0.00,0.00
2014-06-04 19:00:00,2,1290,20,0.00,2,2,0,2,671,2345,462,1284,20,20,0,20,0.00,0.00,0.00,0.00
2014-06-04 19:10:00,2,642,29,0.00,2,2,0,2,416,1357,277,535,20,32,5,32,0.00,0.00,0.00,0.00
2014-06-04 19:20:00,2,677,32,0.00,2,2,0,2,534,1048,174,572,32,33,0,32,0.00,0.00,0.00,0.00
2014-06-04 19:30:00,2,826,33,0.00,2,2,0,2,604,1039,147,828,33,33,0,33,0.00,0.00,0.00,0.00
2014-06-04 19:40:00,2,827,34,0.00,2,2,0,2,591,1378,257,708,34,34,0,34,0.00,0.00,0.00,0.00
2014-06-04 19:50:00,2,828,34,0.00,2,2,0,2,596,1120,172,818,33,34,0,34,0.00,0.00,0.00,0.00
2014-06-04 20:00:00,2,1461,28,0.00,2,2,0,2,707,3029,776,1070,20,33,6,33,0.00,0.00,0.00,0.00
2014-06-04 20:10:00,2,4340,20,0.00,2,2,0,2,932,8754,2637,4096,20,20,0,20,0.00,0.00,0.00,0.00
2014-06-04 20:20:00,2,1175,21,0.00,2,2,0,2,695,4226,1028,774,20,30,3,20,0.00,0.00,0.00,0.00
2014-06-04 20:30:00,2,2010,32,0.00,2,2,0,2,778,8025,2185,1000,32,32,0,32,0.00,0.00,0.00,0.00
2014-06-04 20:40:00,2,1426,22,0.00,2,2,0,2,602,4749,1277,736,20,30,4,20,0.00,0.00,0.00,0.00
2014-06-04 20:50:00,2,1332,34,0.00,2,2,0,2,565,3937,1100,840,33,34,0,34,0.00,0.00,0.00,0.00
2014-06-04 21:00:00,2,792,32,0.00,2,2,0,2,540,1078,150,772,30,34,2,30,0.00,0.00,0.00,0.00
2014-06-04 21:10:00,2,885,34,0.00,2,2,0,2,547,1359,302,764,30,34,1,34,0.00,0.00,0.00,0.00
2014-06-04 21:20:00,2,1488,27,0.00,2,2,0,2,879,2434,460,1403,20,34,5,30,0.00,0.00,0.00,0.00
2014-06-04 21:30:00,2,4577,20,0.00,2,2,0,2,846,18675,5155,2802,20,20,0,20,0.00,0.00,0.00,0.00
2014-06-04 21:40:00,2,1222,20,0.00,2,2,0,2,664,2141,464,1038,20,20,0,20,0.00,0.00,0.00,0.00
2014-06-04 21:50:00,2,790,32,0.00,2,2,0,2,569,1132,155,742,30,33,1,32,0.00,0.00,0.00,0.00
2014-06-04 22:00:00,2,572,33,0.00,2,2,0,2,480,693,58,579,33,34,0,33,0.00,0.00,0.00,0.00
2014-06-04 22:10:00,2,557,34,0.00,2,2,0,2,464,685,71,524,34,34,0,34,0.00,0.00,0.00,0.00
2014-06-04 22:20:00,2,3334,34,0.00,2,2,0,2,574,10029,3213,1580,34,34,0,34,0.00,0.00,0.00,0.00
2014-06-04 22:30:00,2,10040,21,0.00,2,2,0,2,2253,19652,5530,10328,20,34,4,20,0.00,0.00,0.00,0.00
2014-06-04 22:40:00,2,26918,20,0.00,2,2,0,2,6781,50000,16276,26938,20,20,0,20,0.00,0.00,0.00,0.00
2014-06-04 22:50:00,2,13070,20,0.00,2,2,0,2,1588,50000,13385,9560,20,20,0,20,0.00,0.00,0.00,0.00
2014-06-04 23:00:00,2,6989,20,0.00,2,2,0,2,927,35513,10294,1715,20,20,0,20,0.00,0.00,0.00,0.00
2014-06-04 23:10:00,2,24629,20,0.00,2,2,0,2,8907,40821,11462,25485,20,20,0,20,0.00,0.00,0.00,0.00
2014-06-04 23:20:00,2,36612,20,0.00,2,2,0,2,14360,50000,12876,39646,20,20,0,20,0.00,0.00,0.00,0.00
2014-06-04 23:30:00,2,4856,9,0.00,2,2,0,2,1000,18567,4861,3126,0,20,5,10,0.00,0.00,0.00,0.00
2014-06-04 23:40:00,2,6536,10,0.00,2,2,0,2,655,32416,9143,2016,10,10,0,10,0.00,0.00,0.00,0.00
2014-06-04 23:50:00,2,5634,10,0.00,2,2,0,2,1920,10205,3380,4978,10,10,0,10,0.00,0.00,0.00,0.00
